St. Petersburg, FL

9:44 AM EST on December 12, 2017 (GMT -0500)
Whitted

Weather History for KSPG - March, 2013

Change the Weather History Date:

Monday, March 4, 2013

  Actual Average Record
Temperature  
Mean Temperature 54 °F -  
Max Temperature 61 °F 74 °F 86 °F (1961)
Min Temperature 48 °F 58 °F 40 °F (1960)
Degree Days  
Heating Degree Days 10    
Growing Degree Days 4 (Base 50)    
Moisture  
Dew Point 38 °F    
Average Humidity 53    
Maximum Humidity 68    
Minimum Humidity 38    
Precipitation  
Precipitation 0.00 in - - ()
Sea Level Pressure  
Sea Level Pressure 30.18 in    
Wind  
Wind Speed 8 mph (NE)    
Max Wind Speed 14 mph    
Max Gust Speed -    
Visibility 10 miles    
Events      
Averages and records for this station are not official NWS values.
T = Trace of Precipitation, MM = Missing Value Source: NWS Daily Summary

Daily Weather History Graph

Daily Weather History Graph

Search for Another Location

Airport or City:

Trip Planner

Search our weather history database for the weather conditions in past years. The results will help you decide how hot, cold, wet, or windy it might be!

Date:

Astronomy

Mar. 04, 2013 Rise Set
Actual Time 6:51 AM EST 6:33 PM EST
Civil Twilight 6:28 AM EST 6:56 PM EST
Nautical Twilight 6:01 AM EST 7:23 PM EST
Astronomical Twilight 5:33 AM EST 7:50 PM EST
Moon 12:39 AM EST (3/4) 11:35 AM EST (3/4)
Length of Visible Light 12h 28m
Length of Day
11h 41m
Waning Gibbous, 52% of the Moon is Illuminated
Mar 4
Waning Gibbous
Mar 4
Last Quarter
Mar 11
New
Mar 19
First Quarter
Mar 27
Full

Hourly Weather History & Observations

Time (EST) Temp. Dew Point Humidity Pressure Visibility Wind Dir Wind Speed Gust Speed Precip Events Conditions
12:53 AM 53.1 °F 37.9 °F 57% 30.16 in 10.0 mi Variable 4.6 mph - N/A   Overcast
1:53 AM 53.1 °F 39.0 °F 59% 30.16 in 10.0 mi North 4.6 mph - N/A   Mostly Cloudy
2:53 AM 53.1 °F 39.0 °F 59% 30.14 in 10.0 mi NNW 5.8 mph - N/A   Overcast
3:53 AM 50.0 °F 39.9 °F 68% 30.14 in 10.0 mi NNE 13.8 mph - N/A   Partly Cloudy
4:53 AM 48.9 °F 35.1 °F 59% 30.16 in 10.0 mi NE 10.4 mph - N/A   Clear
5:53 AM 48.9 °F 35.1 °F 59% 30.18 in 10.0 mi NE 9.2 mph - N/A   Clear
6:53 AM 48.9 °F 35.1 °F 59% 30.20 in 10.0 mi NNE 10.4 mph - N/A   Clear
7:53 AM 50.0 °F 33.1 °F 52% 30.23 in 10.0 mi ENE 12.7 mph - N/A   Clear
8:53 AM 51.1 °F 32.0 °F 48% 30.24 in 10.0 mi ENE 13.8 mph - N/A   Clear
9:53 AM 53.1 °F 34.0 °F 48% 30.24 in 10.0 mi ENE 11.5 mph - N/A   Clear
10:53 AM 55.0 °F 33.1 °F 43% 30.24 in 10.0 mi ENE 6.9 mph - N/A   Clear
11:53 AM 55.9 °F 34.0 °F 44% 30.22 in 10.0 mi East 8.1 mph - N/A   Clear
12:53 PM 59.0 °F 35.1 °F 41% 30.19 in 10.0 mi NE 9.2 mph - N/A   Clear
1:53 PM 59.0 °F 36.0 °F 42% 30.16 in 10.0 mi SE 5.8 mph - N/A   Clear
2:53 PM 61.0 °F 35.1 °F 38% 30.14 in 10.0 mi SSE 6.9 mph - N/A   Clear
3:53 PM 60.1 °F 41.0 °F 49% 30.14 in 10.0 mi SW 10.4 mph - N/A   Clear
4:53 PM 59.0 °F 39.9 °F 49% 30.14 in 10.0 mi West 9.2 mph - N/A   Clear
5:53 PM 59.0 °F 41.0 °F 51% 30.16 in 10.0 mi WNW 8.1 mph - N/A   Clear
6:53 PM 57.0 °F 39.9 °F 53% 30.16 in 10.0 mi NNW 9.2 mph - N/A   Clear
7:53 PM 55.0 °F 39.9 °F 57% 30.16 in 10.0 mi North 5.8 mph - N/A   Clear
8:53 PM 55.0 °F 41.0 °F 59% 30.16 in 10.0 mi NNE 5.8 mph - N/A   Clear
9:53 PM 55.0 °F 43.0 °F 64% 30.17 in 10.0 mi North 3.5 mph - N/A   Clear
10:53 PM 55.0 °F 43.0 °F 64% 30.18 in 10.0 mi Calm Calm - N/A   Clear
11:53 PM 55.9 °F 39.9 °F 55% 30.17 in 10.0 mi East 6.9 mph - N/A   Clear